Погода в Лозанне

Швейцария     46°31′16″N   6°37′23″E
темп.,
°C
ветер,
м/с
пор.,
м/с
влажн.,
%
обл.,
%
осадки,
мм/ч
давл.,
гПа
погр.,
м
17 августа, ср
ср1723:00+23ссв234799 0.0 1009127
02:00+21зюз356592 0.2 1011233
05:00+19сз117223 0.1 1011108
08:00+18с237924 0.3 1012187
11:00+23ссв335796 0.0 1011637
14:00+26ююв2149100 0.1 10101006
17:00+27ююв1142100 0.0 1008857
20:00+18зюз5591100 5.8 1013348
18 августа, чт
чт1823:00+17юз2291100 18.2 1015227
02:00+17юз1287100 20.6 1015230
05:00+16зюз1188100 0.4 1014227
08:00+17ссз228752 0.4 1014261
11:00+20св236494 0.0 1014881
14:00+23в235042 0.1 10121298
17:00+25ссз2342100 0.0 10111615
20:00+21с4563100 0.1 1012389
19 августа, пт
пт1923:00+19с3374100 1.0 1013176
02:00+18с337656 2.3 1013204
05:00+16с2287100 1.5 1014203
08:00+17ссз118599 2.1 1015206
11:00+20в127013 0.7 1016522
14:00+22всв23616 2.1 1016744
17:00+22зсз226098 0.4 1016273
20:00+21ссз236718 0.8 1016230
20 августа, сб
сб2023:00+18ссз22758 0.3 101861
02:00+17ссз227547 0.3 101993
05:00+17сз117326 0.0 1019123
08:00+17ссз11740 0.0 1019144
11:00+21вюв11580 0.0 1019593
14:00+23юз115128 0.1 1018918
17:00+25вюв114855 0.1 10171064
20:00+22сз226325 0.1 1018219
21 августа, вс
вс2123:00+20с237132 0.1 1019168
02:00+19ссв3375100 0.2 1018236
05:00+17с238098 0.0 1018200
08:00+18с2277100 0.0 1018200
11:00+21всв226261 0.0 1018663
14:00+24вюв335182 0.0 10161193
17:00+25ююв0145100 0.0 1015188
20:00+23ссв4552100 0.0 1015415